User: anonymous   Login
Location: Bergnershof
(48.9468°N, 10.9431°E)
Time: 05:02:25
(UTC+00:00)
Language:

Cosmos 968 Rocket - Orbit

View from above orbital plane
View from above orbital plane
View from above satellite
View from above satellite

Ground track
Ground track

The orbit data is extracted from the following two-line orbital elements,

1 10521U 77119B   21125.42017774  .00000075  00000-0  31629-4 0  9994
2 10521  74.0264 161.9861 0021217 192.2704 167.7938 14.40821794276235
Epoch (UTC): 05 May 2021 10:05:03
Eccentricity: 0.0021217
inclination: 74.0264°
perigee height: 740 km
apogee height: 771 km
right ascension of ascending node: 161.9861°
argument of perigee: 192.2704°
revolutions per day: 14.40821794
mean anomaly at epoch: 167.7938°
orbit number at epoch: 27623

The dashed part of the orbit path shows where the satellite is in the earth's shadow,  

DLR